Simultaneous Nadir Overpasses (SNOs) Predictions

Prediction of SNOs between GOES-16 and LANDSAT-8 Satellite Orbit:

Table of predicted SNOs for the next 14.0 days since TLE Epoch: 6/29/2019
Index Date Time (GOES-16) GOES-16 Lat,Lon LANDSAT-8 Lat,Lon Distance(km) Time Diff (sec)
1 06/29/2019 03:10:50 -0.00, -75.19 0.12, -74.68 58.94 1
2 07/01/2019 02:57:20 -0.01, -75.20 0.74, -71.72 395.46 80
3 07/01/2019 15:21:16 0.01, -75.20 0.34, -76.88 189.85 80
4 07/03/2019 15:06:25 0.00, -75.21 -0.28, -73.92 146.53 80
5 07/04/2019 03:30:28 0.00, -75.20 -0.85, -79.11 444.57 80
6 07/05/2019 14:54:14 -0.02, -75.21 -0.89, -70.96 483.14 80
7 07/06/2019 03:18:19 0.02, -75.21 -0.17, -76.16 107.81 80
8 07/08/2019 03:03:28 0.03, -75.22 0.45, -73.20 229.87 80
9 07/08/2019 15:27:23 -0.03, -75.24 0.63, -78.36 354.98 80
10 07/10/2019 15:15:12 -0.03, -75.26 0.01, -75.40 16.23 80
11 07/12/2019 15:00:21 -0.03, -75.29 -0.61, -72.44 323.20 80




NCC Satellite Simultaneous Nadir Overpasses (SNOs) Prediction Service
